Henderson, KY

5:25 AM CST on December 11, 2019 (GMT -0600)
Henderson City-County

Weather History for KEHR - June, 2019

Change the Weather History Date:

Sunday, June 9, 2019

  Actual Average Record
Temperature  
Mean Temperature 76 °F -  
Max Temperature 82 °F 85 °F 99 °F (1933)
Min Temperature 69 °F 63 °F 49 °F (1980)
Cooling Degree Days 10    
Growing Degree Days 26 (Base 50)    
Moisture  
Dew Point 70 °F    
Average Humidity 87    
Maximum Humidity 100    
Minimum Humidity 65    
Precipitation  
Precipitation 0.04 in - - ()
Sea Level Pressure  
Sea Level Pressure 29.86 in    
Wind  
Wind Speed 6 mph (NNE)    
Max Wind Speed 10 mph    
Max Gust Speed -    
Visibility 10 miles    
Events Rain    
Averages and records for this station are not official NWS values.
T = Trace of Precipitation, MM = Missing Value Source: NWS Daily Summary

Daily Weather History Graph

Daily Weather History Graph

Search for Another Location

Airport or City:

Astronomy

Jun. 09, 2019 Rise Set
Actual Time 5:28 AM CDT 8:11 PM CDT
Civil Twilight 4:57 AM CDT 8:42 PM CDT
Nautical Twilight 4:18 AM CDT 9:21 PM CDT
Astronomical Twilight 3:34 AM CDT 10:05 PM CDT
Moon 12:02 PM CDT (6/9) 12:54 AM CDT (6/9)
Length of Visible Light 15h 45m
Length of Day
14h 43m
Waxing Crescent, 44% of the Moon is Illuminated
Jun 9
Waxing Crescent
Jun 10
First Quarter
Jun 17
Full
Jun 25
Last Quarter
Jul 2
New

Hourly Weather History & Observations

Time (CDT) Temp. Heat Index Dew Point Humidity Pressure Visibility Wind Dir Wind Speed Gust Speed Precip Events Conditions
12:06 AM 71.6 °F - 69.8 °F 94% 29.80 in 10.0 mi ENE 9.2 mph - N/A   Mostly Cloudy
12:35 AM 71.6 °F - 69.8 °F 94% 29.81 in 10.0 mi East 6.9 mph - N/A   Overcast
12:56 AM 71.1 °F - 69.1 °F 93% 29.81 in 10.0 mi ENE 8.1 mph - N/A   Overcast
1:56 AM 71.1 °F - 70.0 °F 96% 29.80 in 10.0 mi ENE 5.8 mph - N/A   Mostly Cloudy
2:31 AM 71.6 °F - 69.8 °F 94% 29.81 in 10.0 mi NE 5.8 mph - N/A   Scattered Clouds
2:38 AM 71.6 °F - 69.8 °F 94% 29.81 in 10.0 mi NE 6.9 mph - N/A   Mostly Cloudy
2:56 AM 71.1 °F - 69.1 °F 93% 29.80 in 10.0 mi NE 6.9 mph - 0.00 in Rain Light Rain
3:33 AM 69.8 °F - 69.8 °F 100% 29.81 in - NE 5.8 mph - 0.01 in Rain Light Rain
3:56 AM 70.0 °F - 69.1 °F 97% 29.80 in 10.0 mi NE 6.9 mph - 0.03 in Rain Light Rain
4:07 AM 69.8 °F - 69.8 °F 100% 29.81 in 10.0 mi NE 6.9 mph - 0.01 in Rain Light Rain
4:56 AM 70.0 °F - 69.1 °F 97% 29.81 in 10.0 mi NE 6.9 mph - 0.01 in   Overcast
5:56 AM 70.0 °F - 69.1 °F 97% 29.83 in 10.0 mi NNE 3.5 mph - N/A   Overcast
6:18 AM 69.8 °F - - N/A% 29.85 in 10.0 mi Calm Calm - N/A   Overcast
6:56 AM 70.0 °F - 69.1 °F 97% 29.85 in 10.0 mi NE 5.8 mph - N/A   Overcast
7:17 AM 71.6 °F - 69.8 °F 94% 29.86 in 10.0 mi NNE 4.6 mph - N/A   Overcast
7:56 AM 71.1 °F - 70.0 °F 96% 29.86 in 10.0 mi NNE 4.6 mph - N/A   Mostly Cloudy
8:56 AM 72.0 °F - 70.0 °F 93% 29.88 in 10.0 mi Calm Calm - N/A   Overcast
9:24 AM 73.4 °F - 69.8 °F 88% 29.88 in 10.0 mi Calm Calm - N/A   Overcast
9:56 AM 73.0 °F - 70.0 °F 90% 29.88 in 10.0 mi NW 5.8 mph - N/A   Overcast
10:03 AM 73.4 °F - 69.8 °F 88% 29.88 in 10.0 mi North 3.5 mph - N/A   Overcast
10:39 AM 75.2 °F - 71.6 °F 89% 29.88 in 9.0 mi Calm Calm - N/A   Overcast
10:56 AM 73.9 °F - 70.0 °F 87% 29.88 in 10.0 mi NNW 4.6 mph - N/A   Overcast
11:56 AM 75.9 °F - 71.1 °F 85% 29.88 in 10.0 mi NNE 5.8 mph - N/A   Overcast
12:10 PM 77.0 °F - 71.6 °F 83% 29.89 in 10.0 mi NNE 5.8 mph - N/A   Overcast
12:37 PM 78.8 °F - 71.6 °F 78% 29.88 in 10.0 mi Variable 3.5 mph - N/A   Partly Cloudy
12:56 PM 79.0 °F - 71.1 °F 77% 29.88 in 10.0 mi Variable 3.5 mph - N/A   Mostly Cloudy
1:56 PM 80.1 °F 83.8 °F 72.0 °F 76% 29.87 in 10.0 mi NW 5.8 mph - N/A   Mostly Cloudy
2:56 PM 81.0 °F 84.9 °F 71.1 °F 72% 29.86 in 10.0 mi Calm Calm - N/A   Mostly Cloudy
3:56 PM 82.9 °F 87.5 °F 71.1 °F 67% 29.86 in - North 9.2 mph - N/A   Unknown
4:56 PM 82.9 °F 87.0 °F 70.0 °F 65% 29.87 in 10.0 mi NW 9.2 mph - N/A   Clear
5:56 PM 81.0 °F 84.4 °F 70.0 °F 69% 29.87 in 10.0 mi NNW 5.8 mph - N/A   Scattered Clouds
6:56 PM 80.1 °F 83.6 °F 71.1 °F 74% 29.89 in 10.0 mi West 10.4 mph - N/A   Clear
7:56 PM 79.0 °F - 70.0 °F 74% 29.90 in 10.0 mi NW 4.6 mph - N/A   Scattered Clouds
8:56 PM 75.9 °F - 70.0 °F 82% 29.91 in 10.0 mi WNW 4.6 mph - N/A   Clear
9:56 PM 73.9 °F - 70.0 °F 87% 29.92 in 7.0 mi Calm Calm - N/A   Clear
10:56 PM 72.0 °F - 70.0 °F 93% 29.92 in 10.0 mi Calm Calm - N/A   Clear
11:56 PM 73.0 °F - 71.1 °F 93% 29.93 in 10.0 mi WNW 4.6 mph - N/A   Partly Cloudy